Hourly Weather Chaguani

Today, 15 June, Tuesday

Time Temperature Precipitation Wind Pressure Humidity
00:00 +20°C° 1.4 mm 1 mps 675 mmHg 96%
01:00 +19°C° 0 mm 1 mps 675 mmHg 97%
02:00 +19°C° 0.9 mm 1 mps 675 mmHg 97%
03:00 +19°C° 0.9 mm 1 mps 675 mmHg 97%
04:00 +19°C° 0.9 mm 1 mps 675 mmHg 96%
05:00 +20°C° 0.5 mm 1 mps 675 mmHg 96%
06:00 +20°C° 0.5 mm 1 mps 676 mmHg 95%
07:00 +18°C° 0 mm 0 mps 676 mmHg 94%
08:00 +22°C° 0.3 mm 1 mps 677 mmHg 88%
09:00 +23°C° 0.3 mm 1 mps 677 mmHg 82%
10:00 +25°C° 0.3 mm 1 mps 677 mmHg 75%
11:00 +26°C° 0.4 mm 1 mps 677 mmHg 72%
12:00 +27°C° 0.4 mm 1 mps 676 mmHg 68%
13:00 +28°C° 0.4 mm 1 mps 675 mmHg 65%
14:00 +27°C° 0.6 mm 1 mps 675 mmHg 69%
15:00 +26°C° 0.6 mm 1 mps 674 mmHg 74%
16:00 +26°C° 0.6 mm 1 mps 674 mmHg 78%
17:00 +24°C° 0.8 mm 1 mps 674 mmHg 83%
18:00 +23°C° 0.8 mm 1 mps 674 mmHg 88%
19:00 +21°C° 0.8 mm 1 mps 674 mmHg 94%
20:00 +21°C° 1.1 mm 1 mps 675 mmHg 94%
21:00 +20°C° 1.1 mm 1 mps 675 mmHg 94%
22:00 +20°C° 1.1 mm 1 mps 675 mmHg 95%
23:00 +20°C° 1.3 mm 1 mps 675 mmHg 96%

Tomorrow, 16 June, Wednesday

Time Temperature Precipitation Wind Pressure Humidity
00:00 +19°C° 1.3 mm 1 mps 674 mmHg 96%
01:00 +19°C° 1.3 mm 1 mps 674 mmHg 97%
02:00 +19°C° 0.8 mm 1 mps 674 mmHg 97%
03:00 +19°C° 0.8 mm 1 mps 674 mmHg 96%
04:00 +19°C° 0.8 mm 1 mps 674 mmHg 96%
05:00 +19°C° 0.3 mm 1 mps 674 mmHg 96%
06:00 +20°C° 0.3 mm 1 mps 675 mmHg 95%
07:00 +20°C° 0.3 mm 1 mps 675 mmHg 95%
08:00 +22°C° 0.1 mm 1 mps 676 mmHg 88%
09:00 +23°C° 0.1 mm 2 mps 676 mmHg 82%
10:00 +24°C° 0.1 mm 2 mps 676 mmHg 75%
11:00 +25°C° 0.2 mm 2 mps 676 mmHg 73%
12:00 +25°C° 0.2 mm 3 mps 675 mmHg 71%
13:00 +26°C° 0.2 mm 3 mps 675 mmHg 69%
14:00 +25°C° 0.1 mm 3 mps 674 mmHg 72%
15:00 +24°C° 0.1 mm 3 mps 674 mmHg 76%
16:00 +23°C° 0.1 mm 2 mps 673 mmHg 79%
17:00 +21°C° 0 mm 2 mps 673 mmHg 81%
18:00 +21°C° 0 mm 2 mps 674 mmHg 83%
19:00 +21°C° 0 mm 1 mps 674 mmHg 85%
20:00 +21°C° 0 mm 1 mps 674 mmHg 86%
21:00 +20°C° 0 mm 1 mps 675 mmHg 86%
22:00 +20°C° 0 mm 1 mps 675 mmHg 87%
23:00 +19°C° 0 mm 1 mps 675 mmHg 87%

Day after tomorrow, 17 June, Thursday

Time Temperature Precipitation Wind Pressure Humidity
00:00 +19°C° 0 mm 1 mps 674 mmHg 87%
01:00 +19°C° 0 mm 1 mps 674 mmHg 87%
02:00 +19°C° 0 mm 1 mps 674 mmHg 86%
03:00 +19°C° 0 mm 1 mps 673 mmHg 86%
04:00 +18°C° 0 mm 1 mps 673 mmHg 85%
05:00 +19°C° 0 mm 1 mps 674 mmHg 83%
06:00 +20°C° 0 mm 1 mps 674 mmHg 80%
07:00 +20°C° 0 mm 1 mps 675 mmHg 77%
08:00 +23°C° 0 mm 1 mps 675 mmHg 70%
09:00 +25°C° 0 mm 1 mps 676 mmHg 62%
10:00 +27°C° 0 mm 2 mps 676 mmHg 55%
11:00 +28°C° 0.1 mm 2 mps 676 mmHg 53%
12:00 +29°C° 0.1 mm 2 mps 675 mmHg 51%
13:00 +29°C° 0.1 mm 2 mps 675 mmHg 48%
14:00 +29°C° 0.1 mm 2 mps 674 mmHg 50%
15:00 +29°C° 0.1 mm 2 mps 673 mmHg 52%
16:00 +28°C° 0.1 mm 2 mps 673 mmHg 54%
17:00 +26°C° 0.1 mm 1 mps 673 mmHg 64%
18:00 +24°C° 0.1 mm 1 mps 673 mmHg 73%
19:00 +22°C° 0.1 mm 1 mps 673 mmHg 83%
20:00 +21°C° 0 mm 1 mps 674 mmHg 83%
21:00 +21°C° 0 mm 1 mps 674 mmHg 83%
22:00 +20°C° 0 mm 1 mps 675 mmHg 82%
23:00 +20°C° 0.1 mm 1 mps 674 mmHg 83%

18 June, Friday

Time Temperature Precipitation Wind Pressure Humidity
00:00 +20°C° 0.1 mm 1 mps 674 mmHg 84%
01:00 +19°C° 0.1 mm 1 mps 674 mmHg 84%
02:00 +19°C° 0.1 mm 1 mps 674 mmHg 84%
03:00 +19°C° 0.1 mm 1 mps 674 mmHg 85%
04:00 +19°C° 0.1 mm 1 mps 674 mmHg 85%
05:00 +19°C° 0 mm 1 mps 674 mmHg 83%
06:00 +20°C° 0 mm 1 mps 675 mmHg 82%
07:00 +20°C° 0 mm 1 mps 675 mmHg 80%
08:00 +23°C° 0 mm 1 mps 676 mmHg 72%
09:00 +25°C° 0 mm 2 mps 676 mmHg 64%
10:00 +27°C° 0 mm 2 mps 677 mmHg 56%
11:00 +28°C° 0.1 mm 2 mps 676 mmHg 55%
12:00 +28°C° 0.1 mm 3 mps 676 mmHg 53%
13:00 +29°C° 0.1 mm 3 mps 675 mmHg 52%
14:00 +29°C° 0.1 mm 3 mps 675 mmHg 54%
15:00 +28°C° 0.1 mm 3 mps 674 mmHg 56%
16:00 +28°C° 0.1 mm 2 mps 674 mmHg 58%
17:00 +26°C° 0.1 mm 2 mps 674 mmHg 66%
18:00 +24°C° 0.1 mm 2 mps 674 mmHg 74%
19:00 +22°C° 0.1 mm 1 mps 674 mmHg 83%
20:00 +21°C° 0 mm 1 mps 674 mmHg 83%
21:00 +21°C° 0 mm 1 mps 675 mmHg 83%
22:00 +20°C° 0 mm 1 mps 675 mmHg 83%
23:00 +20°C° 0 mm 1 mps 675 mmHg 83%

19 June, Saturday

Time Temperature Precipitation Wind Pressure Humidity
00:00 +20°C° 0 mm 1 mps 675 mmHg 83%
01:00 +19°C° 0 mm 1 mps 674 mmHg 83%
02:00 +19°C° 0 mm 1 mps 674 mmHg 82%
03:00 +19°C° 0 mm 1 mps 674 mmHg 82%
04:00 +19°C° 0 mm 1 mps 674 mmHg 81%
05:00 +20°C° 0 mm 1 mps 674 mmHg 79%
06:00 +20°C° 0 mm 1 mps 675 mmHg 77%
07:00 +21°C° 0 mm 1 mps 675 mmHg 75%
08:00 +23°C° 0 mm 2 mps 676 mmHg 67%
09:00 +26°C° 0 mm 2 mps 676 mmHg 59%
10:00 +28°C° 0 mm 3 mps 677 mmHg 51%
11:00 +29°C° 0.1 mm 3 mps 676 mmHg 50%
12:00 +29°C° 0.1 mm 3 mps 675 mmHg 49%
13:00 +30°C° 0.1 mm 3 mps 675 mmHg 48%
14:00 +29°C° 0.1 mm 2 mps 674 mmHg 49%
15:00 +29°C° 0.1 mm 2 mps 674 mmHg 51%
16:00 +29°C° 0.1 mm 2 mps 673 mmHg 52%
17:00 +27°C° 0.1 mm 2 mps 673 mmHg 61%
18:00 +25°C° 0.1 mm 1 mps 673 mmHg 71%
19:00 +22°C° 0.1 mm 1 mps 673 mmHg 80%
20:00 +22°C° 0.1 mm 1 mps 674 mmHg 81%
21:00 +21°C° 0.1 mm 1 mps 674 mmHg 82%
22:00 +21°C° 0.1 mm 1 mps 675 mmHg 83%
23:00 +20°C° 0.5 mm 1 mps 674 mmHg 86%

20 June, Sunday

Time Temperature Precipitation Wind Pressure Humidity
00:00 +20°C° 0.5 mm 1 mps 674 mmHg 89%
01:00 +19°C° 0.5 mm 1 mps 674 mmHg 93%
02:00 +19°C° 0.4 mm 1 mps 674 mmHg 93%
03:00 +19°C° 0.4 mm 1 mps 674 mmHg 93%
04:00 +19°C° 0.4 mm 1 mps 674 mmHg 93%
05:00 +19°C° 0.3 mm 1 mps 674 mmHg 93%
06:00 +20°C° 0.3 mm 1 mps 675 mmHg 94%
07:00 +20°C° 0.3 mm 1 mps 675 mmHg 94%
08:00 +20°C° 0.2 mm 1 mps 676 mmHg 94%
09:00 +21°C° 0.2 mm 1 mps 676 mmHg 94%
10:00 +21°C° 0.2 mm 1 mps 676 mmHg 93%
11:00 +21°C° 0.4 mm 1 mps 676 mmHg 92%
12:00 +22°C° 0.4 mm 1 mps 676 mmHg 90%
13:00 +21°C° 0.4 mm 2 mps 675 mmHg 89%
14:00 +23°C° 0.1 mm 2 mps 675 mmHg 85%
15:00 +24°C° 0.1 mm 2 mps 674 mmHg 80%
16:00 +24°C° 0.1 mm 2 mps 674 mmHg 76%
17:00 +23°C° 0.1 mm 2 mps 674 mmHg 79%
18:00 +21°C° 0.1 mm 2 mps 674 mmHg 83%
19:00 +21°C° 0.1 mm 2 mps 675 mmHg 87%
20:00 +21°C° 0.1 mm 1 mps 675 mmHg 88%
21:00 +20°C° 0.1 mm 1 mps 675 mmHg 90%
22:00 +20°C° 0.1 mm 1 mps 675 mmHg 91%
23:00 +19°C° 0 mm 1 mps 675 mmHg 91%
Show more

We Need Your Consent

Meteoprog and our Service Providers may store and access personal data such as cookies, device identifiers or other similar technologies on your device and process such data to personalise content and ads, as well as provide social media features and to analyse the traffic.

  • Store and/or access information on your device

    Cookies, device identifiers or other information can be stored or accessed on your device for the purposes indicated above.

  • Personalised ads and content, ad and content measurement, audience insights, and products development

    Ads and content can be personalised based on a profile. More data can be added to better personalise ads and content. Ad and content performance can be measured. Insights about the audience who saw the ads and content can be derived. Such data can be used to develop or improve user’s experience, systems and software.

By clicking ‘I Agree’ you will allow the use of indicated cookies, device identifiers, web beacons or other similar technologies. Your settings can be changed in the browser on your device.

For certain purposes, legitimate interests may be relied on, rather than consent. You can read more about this in our Privacy and Cookie Policy.